Wind_Speed
5 5 4 3 3 3 2 3 2 2 2 2 3 5 7 12 14 16 17 16 14 13 15 12 11 9 3 4 2 7 5 5 4 5 4 2 3 4 6 7 8 13 14 15 14
7 5 5 3 2 2 2 2 3 3 3 3 4 5 6 8 10 12 15 16 16 16 17 15 14 9 4 3 7 10 7 4 5 3 3 3 1 3 7 10 8 7 11 14 14
6 7 6 4 4 2 2 2 2 3 3 4 4 5 6 9 8 7 10 13 17 18 18 17 17 11 7 5 5 12 8 4 2 3 4 5 4 2 7 10 12 8 8 11 12
9 9 7 6 6 5 4 3 3 4 4 5 6 6 6 10 7 5 7 10 14 19 18 19 20 12 8 5 8 9 6 6 1 2 2 6 4 5 3 7 11 13 7 8 10
12 11 10 9 8 7 6 5 4 4 5 6 6 7 7 10 8 5 4 8 13 19 20 21 18 13 8 6 9 7 6 5 1 2 3 2 4 7 0 2 6 11 10 6 8
15 14 13 12 10 10 9 7 6 5 5 5 7 8 9 9 10 6 4 7 12 19 21 22 19 13 9 7 6 5 4 2 2 2 1 2 3 4 3 3 2 5 9 6 7
17 17 16 15 13 13 12 9 8 6 6 5 6 8 9 11 11 9 7 7 12 18 21 22 19 14 9 6 8 7 4 2 4 6 3 2 8 7 8 6 7 4 6 7 6
19 18 18 17 16 15 14 11 9 8 7 7 6 7 8 10 12 12 10 10 12 17 21 20 18 14 10 9 7 6 6 7 9 12 12 10 11 7 6 8 7 7 4 6 7
20 19 18 18 17 16 15 12 11 10 9 8 8 7 7 11 12 13 13 13 13 16 19 21 17 14 13 11 7 4 6 12 9 6 9 14 9 7 8 6 9 8 6 4 6
19 19 18 18 17 17 15 13 13 12 11 9 9 7 8 11 10 11 13 14 15 14 17 21 20 18 15 13 12 7 11 7 8 7 11 17 15 12 9 9 4 9 10 7 3
18 17 17 16 15 16 16 14 14 14 12 11 6 10 6 9 10 11 12 12 14 15 15 18 19 18 16 15 11 11 9 4 8 7 2 8 6 3 6 6 6 10 10 10 6
19 18 18 16 15 14 13 13 14 14 13 13 14 12 9 9 9 11 11 13 13 16 18 16 16 13 18 15 14 14 7 1 4 7 2 0 3 6 5 4 9 15 15 12 11
20 19 19 18 17 15 12 10 11 13 14 14 14 14 15 13 11 9 9 12 13 13 18 18 13 14 14 16 12 9 5 1 3 4 0 3 5 5 7 8 10 14 16 16 13
18 17 18 18 17 17 14 11 8 9 7 8 11 17 17 17 16 13 12 11 11 10 12 13 13 15 14 16 13 6 3 4 3 1 1 4 4 6 7 6 7 10 4 14 15
16 16 16 16 15 15 15 12 7 5 2 3 9 14 17 22 13 15 14 13 10 9 12 9 16 10 10 15 12 5 2 3 5 1 1 4 4 5 4 3 4 1 7 7 12
16 15 15 14 16 15 14 12 9 5 5 4 5 8 14 22 23 11 22 16 12 11 12 12 16 13 10 13 14 8 8 3 1 2 5 2 3 3 3 4 1 3 7 8 7
13 13 14 14 15 16 14 13 9 7 6 4 5 7 11 17 24 17 18 21 17 13 17 17 17 16 8 8 15 12 9 2 3 4 3 2 3 3 4 8 5 4 9 9 4
10 11 14 15 15 17 17 18 6 8 12 9 7 3 10 14 22 24 18 17 19 16 9 13 12 20 11 11 11 13 9 5 3 3 3 3 4 2 4 3 2 2 9 8 1
8 9 12 14 15 18 20 21 13 9 10 20 13 9 7 9 14 24 27 25 19 23 9 11 11 16 17 12 13 13 9 7 6 3 3 3 4 1 3 1 4 5 9 5 1
6 8 11 14 16 19 22 24 17 17 8 7 7 6 4 8 15 10 18 21 22 23 19 6 5 13 14 16 15 13 11 6 6 5 4 3 4 2 3 5 5 3 6 9 3
4 6 9 13 16 20 26 23 21 16 18 7 4 4 4 3 7 16 7 13 16 21 18 17 9 8 15 10 15 16 17 11 9 5 4 3 5 4 5 6 7 9 10 12 9
3 5 8 12 16 21 24 19 22 24 18 16 8 2 2 3 3 8 16 11 16 14 24 20 10 14 12 11 9 14 18 21 10 8 7 4 6 8 5 7 10 13 15 14 15
3 5 7 11 13 16 21 22 23 22 21 16 17 14 6 3 3 5 10 19 20 15 17 25 14 8 5 8 10 13 15 18 16 10 13 7 4 4 5 5 11 14 15 17 12
3 5 8 9 11 14 16 18 18 20 21 22 23 20 18 10 5 5 6 13 20 23 19 19 19 16 14 7 12 12 16 15 15 11 11 11 8 6 5 4 7 10 15 18 13
4 6 7 6 10 10 9 8 11 15 15 14 21 21 18 14 8 8 5 9 12 15 21 24 21 25 20 14 11 10 10 14 14 10 8 7 5 4 7 8 8 10 14 13 11
5 7 8 5 7 5 4 5 8 13 12 16 16 16 21 16 12 5 8 10 6 11 18 26 17 22 21 22 18 14 16 16 13 11 8 4 3 5 7 8 9 10 9 8 8
4 7 9 9 7 4 2 1 2 8 10 13 13 14 20 17 12 12 10 9 8 8 12 21 20 21 14 18 16 15 21 20 16 12 6 6 5 7 9 10 10 7 6 4 7
Wind_Direction
177 179 187 181 172 148 141 130 136 136 124 147 158 174 183 191 198 207 212 217 210 200 191 198 198 205 274 10 248 209 210 253 293 311 22 257 69 70 56 60 68 70 68 64 64
193 202 207 200 213 176 195 171 171 178 161 170 160 162 176 180 190 203 206 206 200 193 192 201 202 197 187 113 127 169 174 188 254 264 5 334 233 55 50 46 44 61 67 66 71
220 223 225 223 239 233 233 229 214 208 188 186 180 172 173 172 179 193 206 204 200 193 191 201 203 201 201 198 123 141 129 149 216 240 229 279 261 99 55 55 45 46 49 56 71
231 236 239 245 254 252 242 236 228 220 209 201 195 187 184 183 179 188 203 193 192 192 187 200 199 202 187 196 149 129 137 154 161 343 320 258 280 48 67 78 55 39 66 62 73
241 243 247 251 255 261 261 252 242 232 218 209 204 200 197 194 198 185 199 194 183 188 189 198 203 201 195 192 160 145 164 153 219 360 94 156 265 260 116 159 80 37 46 68 82
248 249 251 254 257 261 263 261 253 240 226 215 209 207 205 202 199 202 196 188 181 187 193 198 203 200 209 199 186 184 208 201 286 325 160 28 332 269 265 223 212 75 44 72 87
248 251 253 253 255 259 261 261 260 254 240 228 220 210 208 212 214 217 205 187 182 185 192 199 203 203 212 214 215 205 214 240 286 294 303 299 270 337 295 262 230 198 74 77 92
248 249 251 253 254 255 257 256 258 256 247 234 228 223 208 211 216 216 204 198 190 188 194 196 202 204 202 220 205 227 261 284 297 261 272 265 275 303 294 291 254 230 145 88 88
249 250 250 251 255 256 256 258 257 254 249 241 234 231 217 213 215 215 213 203 200 196 192 196 198 206 206 216 220 220 303 287 315 319 241 248 268 288 298 325 273 246 206 162 93
247 248 250 251 253 256 260 258 258 256 251 247 239 236 224 216 216 221 215 211 211 203 194 197 211 217 213 219 232 240 283 273 328 324 240 241 256 285 295 298 287 261 237 207 154
249 249 251 252 254 254 259 259 262 261 255 246 233 226 226 216 209 216 215 214 217 216 205 201 212 220 231 240 228 241 258 286 339 336 306 233 239 230 286 235 271 281 256 222 203
252 252 254 254 255 255 254 258 262 261 256 247 238 225 227 221 212 219 224 215 214 220 215 214 220 216 228 224 232 237 223 327 0 4 358 96 230 230 265 305 276 274 259 234 219
249 249 252 253 254 255 255 258 262 262 264 248 244 231 224 229 223 224 227 220 216 217 218 218 222 209 208 207 208 209 193 269 334 350 294 252 247 228 286 298 292 297 278 237 221
250 248 247 249 250 249 251 255 267 277 276 259 240 235 221 228 234 219 222 219 215 212 216 217 200 198 210 200 197 181 238 224 215 299 338 350 287 301 300 295 321 325 235 184 201
249 248 244 241 242 240 241 241 250 269 312 224 218 215 213 214 224 218 217 214 203 217 205 191 190 190 198 201 197 201 146 149 162 168 61 279 289 273 270 340 344 54 147 165 186
247 243 241 238 230 230 227 219 214 194 246 193 204 212 210 209 215 223 206 206 205 212 207 188 180 181 174 193 195 193 176 183 241 276 242 273 208 217 310 316 203 152 162 177 178
250 239 234 227 224 218 212 197 189 193 216 192 184 206 211 213 207 208 196 206 206 205 216 205 195 190 190 180 197 192 193 234 245 214 236 209 234 231 289 287 276 247 193 184 186
252 238 228 221 218 209 199 190 195 217 206 197 193 233 226 222 214 207 205 215 222 212 223 207 210 196 208 202 193 198 211 220 236 215 177 268 227 243 316 302 224 166 186 172 142
259 240 226 216 212 202 199 194 211 212 220 232 245 267 239 230 213 219 223 233 240 202 195 190 213 210 220 212 196 196 190 212 184 172 251 240 251 264 291 252 142 169 196 172 118
260 233 221 214 207 200 199 209 210 212 208 220 231 217 208 219 208 205 216 233 225 212 212 213 191 191 197 200 201 206 222 173 191 178 221 226 244 243 234 230 198 203 228 244 347
256 225 214 211 203 201 205 213 216 218 219 220 189 197 200 196 202 213 215 215 211 213 203 217 206 194 197 204 217 215 212 210 201 192 196 219 240 207 187 203 227 242 254 255 300
246 211 208 206 199 207 213 219 223 224 225 231 228 243 216 225 222 218 217 207 217 217 216 215 232 235 228 214 243 223 228 221 204 204 199 223 224 200 244 264 255 253 262 272 294
241 207 204 203 201 211 223 230 231 232 230 237 234 239 249 259 293 208 218 220 218 219 224 218 213 206 213 218 206 199 195 193 209 211 199 196 226 204 253 265 275 272 276 284 292
222 193 203 203 210 218 231 243 243 243 242 233 239 239 242 264 252 218 223 219 223 225 226 224 217 218 212 179 193 191 191 194 205 195 199 214 211 245 286 258 266 272 270 279 285
212 207 204 204 221 233 248 249 252 247 246 235 237 237 230 248 244 237 225 219 224 227 217 220 222 229 237 234 227 205 196 187 198 208 194 192 223 257 269 280 299 273 270 277 278
215 205 206 205 211 230 260 268 258 230 229 223 228 230 221 228 231 238 231 209 210 206 213 213 213 228 234 238 240 235 226 210 197 188 191 208 282 282 291 296 292 279 264 268 299
229 213 208 212 206 202 210 11 274 218 236 221 216 222 212 209 221 231 236 217 214 203 207 205 207 214 213 232 230 223 221 211 207 211 213 233 251 262 282 282 275 254 233 289 332
Height
3178 3179 3180 3181 3181 3181 3182 3182 3182 3182 3182 3182 3182 3182 3184 3185 3187 3189 3190 3193 3195 3196 3198 3199 3201 3201 3201 3201 3202 3203 3204 3204 3205 3205 3206 3205 3205 3205 3204 3203 3202 3201 3200 3200 3198
3178 3179 3180 3180 3181 3181 3181 3182 3182 3183 3182 3183 3183 3183 3184 3185 3186 3187 3189 3190 3192 3194 3196 3198 3200 3202 3203 3202 3202 3203 3204 3205 3204 3205 3205 3205 3205 3206 3206 3205 3204 3203 3202 3201 3200
3176 3178 3178 3179 3180 3180 3180 3181 3182 3182 3182 3183 3183 3183 3184 3185 3186 3186 3186 3188 3190 3193 3195 3197 3199 3201 3202 3202 3203 3203 3205 3205 3205 3204 3205 3205 3206 3207 3207 3207 3206 3204 3204 3202 3202
3175 3176 3177 3178 3178 3179 3179 3180 3181 3181 3181 3182 3182 3183 3184 3185 3188 3185 3185 3186 3189 3191 3195 3195 3198 3200 3201 3202 3203 3204 3204 3205 3205 3205 3205 3205 3206 3208 3208 3209 3207 3205 3204 3204 3203
3173 3174 3175 3176 3176 3177 3178 3179 3180 3181 3181 3181 3181 3182 3183 3184 3185 3185 3185 3186 3188 3190 3193 3195 3197 3199 3200 3202 3203 3204 3205 3205 3205 3205 3205 3205 3206 3207 3209 3209 3208 3206 3205 3205 3204
3170 3171 3172 3173 3174 3176 3176 3177 3178 3179 3179 3179 3180 3181 3182 3184 3184 3185 3185 3186 3187 3190 3191 3194 3196 3198 3200 3201 3203 3203 3205 3205 3206 3205 3206 3205 3206 3206 3207 3208 3208 3207 3206 3205 3204
3167 3168 3169 3171 3172 3173 3174 3175 3176 3177 3177 3178 3178 3179 3180 3182 3182 3184 3185 3185 3186 3188 3190 3193 3195 3198 3200 3201 3202 3204 3205 3205 3206 3205 3206 3205 3205 3206 3206 3206 3206 3207 3206 3205 3204
3164 3165 3166 3167 3169 3170 3171 3173 3174 3175 3175 3176 3177 3178 3178 3179 3180 3182 3183 3185 3186 3186 3189 3191 3194 3197 3198 3200 3202 3203 3205 3205 3205 3204 3204 3205 3204 3205 3205 3205 3205 3206 3206 3205 3203
3160 3161 3163 3164 3166 3167 3168 3170 3171 3172 3173 3174 3176 3176 3177 3177 3178 3179 3181 3183 3185 3185 3187 3190 3193 3195 3198 3200 3201 3202 3204 3203 3203 3202 3202 3203 3202 3203 3203 3203 3204 3204 3205 3204 3203
3156 3158 3159 3161 3162 3163 3164 3166 3168 3170 3171 3172 3174 3177 3176 3176 3177 3178 3179 3181 3183 3185 3187 3189 3191 3194 3196 3198 3199 3201 3202 3202 3201 3200 3198 3199 3200 3202 3202 3202 3202 3202 3203 3203 3202
3153 3154 3156 3157 3158 3160 3162 3164 3167 3168 3167 3170 3172 3172 3173 3175 3175 3176 3177 3179 3180 3183 3185 3186 3190 3191 3194 3196 3197 3199 3200 3200 3200 3198 3197 3197 3198 3200 3201 3200 3200 3199 3200 3202 3202
3149 3150 3152 3154 3155 3157 3159 3160 3161 3163 3165 3166 3168 3170 3171 3172 3174 3175 3176 3178 3178 3180 3182 3186 3187 3189 3191 3193 3195 3197 3199 3199 3199 3197 3196 3196 3197 3198 3199 3199 3198 3196 3197 3200 3200
3145 3146 3148 3150 3152 3155 3155 3157 3158 3158 3161 3163 3164 3166 3168 3171 3172 3174 3175 3175 3176 3178 3180 3182 3186 3187 3188 3190 3193 3195 3196 3197 3198 3197 3197 3196 3196 3197 3197 3196 3194 3191 3190 3194 3197
3140 3142 3144 3146 3151 3151 3153 3154 3155 3156 3158 3160 3159 3162 3165 3167 3169 3171 3172 3174 3174 3176 3178 3180 3183 3185 3186 3188 3191 3193 3194 3195 3196 3196 3196 3196 3195 3194 3194 3193 3191 3188 3185 3188 3193
3136 3138 3140 3142 3145 3147 3150 3151 3153 3155 3157 3158 3156 3157 3160 3164 3167 3168 3170 3171 3172 3174 3178 3179 3181 3183 3185 3187 3189 3191 3192 3193 3194 3195 3195 3195 3195 3192 3191 3191 3190 3188 3188 3189 3191
3132 3134 3136 3138 3141 3144 3146 3148 3152 3157 3153 3153 3153 3154 3157 3159 3162 3164 3166 3169 3171 3173 3174 3177 3178 3181 3183 3184 3187 3189 3191 3192 3192 3193 3193 3192 3193 3190 3190 3189 3188 3189 3189 3188 3188
3128 3130 3132 3135 3138 3140 3143 3147 3152 3150 3151 3152 3152 3152 3153 3155 3159 3162 3163 3165 3168 3171 3172 3175 3177 3180 3181 3182 3184 3187 3189 3190 3191 3190 3190 3190 3191 3188 3188 3186 3187 3187 3187 3187 3188
3125 3126 3128 3131 3133 3136 3140 3145 3146 3145 3146 3148 3149 3151 3151 3153 3155 3158 3161 3163 3165 3168 3170 3174 3177 3177 3179 3181 3182 3184 3187 3188 3189 3189 3189 3189 3188 3187 3185 3184 3184 3184 3185 3186 3187
3122 3123 3125 3127 3130 3133 3138 3139 3140 3142 3144 3146 3148 3149 3149 3150 3153 3155 3158 3160 3162 3165 3170 3170 3173 3174 3177 3178 3181 3182 3184 3186 3187 3188 3188 3187 3186 3185 3184 3184 3183 3183 3184 3185 3186
3119 3120 3122 3124 3127 3130 3133 3135 3137 3139 3142 3144 3145 3147 3147 3149 3151 3152 3154 3154 3158 3162 3166 3168 3171 3172 3173 3176 3178 3179 3181 3184 3185 3186 3186 3185 3184 3183 3183 3183 3183 3183 3183 3183 3185
3117 3118 3119 3121 3124 3127 3129 3132 3134 3137 3141 3144 3144 3144 3146 3146 3147 3149 3151 3154 3155 3159 3163 3166 3169 3171 3171 3172 3174 3176 3176 3179 3181 3182 3181 3182 3182 3182 3181 3182 3181 3181 3181 3182 3182
3114 3116 3117 3119 3123 3124 3126 3128 3132 3135 3138 3141 3142 3143 3144 3145 3145 3146 3148 3151 3153 3155 3159 3163 3166 3167 3168 3168 3169 3170 3172 3174 3177 3180 3179 3181 3180 3179 3179 3179 3178 3179 3179 3180 3180
3113 3114 3115 3117 3119 3122 3124 3126 3129 3132 3135 3137 3139 3141 3142 3143 3144 3143 3144 3146 3150 3153 3155 3159 3161 3164 3165 3167 3166 3166 3167 3170 3173 3174 3176 3178 3179 3177 3177 3177 3176 3176 3177 3177 3178
3113 3114 3115 3116 3118 3120 3122 3124 3127 3128 3131 3133 3134 3138 3140 3141 3141 3142 3142 3143 3145 3148 3152 3155 3157 3158 3161 3163 3164 3164 3165 3167 3170 3172 3173 3175 3175 3176 3175 3174 3173 3174 3174 3174 3175
3111 3112 3114 3115 3118 3119 3121 3122 3123 3125 3127 3130 3131 3134 3137 3139 3139 3139 3140 3141 3142 3144 3147 3150 3151 3155 3158 3161 3163 3164 3165 3165 3167 3169 3170 3172 3173 3174 3173 3172 3171 3171 3171 3171 3171
3111 3112 3113 3115 3116 3118 3119 3119 3120 3122 3125 3127 3128 3129 3132 3135 3137 3137 3138 3139 3140 3140 3142 3144 3147 3151 3153 3156 3159 3161 3163 3164 3166 3167 3169 3170 3171 3171 3170 3169 3168 3168 3168 3168 3169
3109 3110 3112 3114 3116 3118 3118 3118 3118 3120 3123 3123 3124 3125 3128 3131 3134 3135 3136 3137 3137 3138 3138 3140 3143 3146 3149 3151 3155 3158 3158 3161 3163 3165 3166 3167 3168 3166 3166 3165 3164 3164 3165 3166 3167